Home   Weather   51°09'N, 6°46'E   Past weeks
Flag for Germany

Past Weather in 51°09'N, 6°46'E, Germany — Yesterday and Last 2 Weeks

Now
82 °F

Sunny.


Feels Like: 82 °F
Forecast: 82 / 63 °F
Wind: 6 mph from Northwest

Location: Duesseldorf

Current Time: Jun 18, 2019 at 7:30:08 pm

Latest Report: Jun 18, 2019 at 6:50 pm


Visibility: 10 mi

Pressure: 29.86 "Hg

Humidity: 42%

Dew Point: 57 °F

Location of 51°09'N, 6°46'ELocation

Past Weather in 51°09'N, 6°46'E — Graph

°F

51°09'N, 6°46'E Temperature Yesterday

Maximum temperature yesterday: 81 °F (at 2:50 pm)
Minimum temperature yesterday: 54 °F (at 4:20 am)
Average temperature yesterday: 69 °F

High & Low Weather Summary for the Past Weeks

 TemperatureHumidityPressure
High84 °F (Jun 18, 2:20 pm)100% (Jun 4, 5:50 am)30.24 "Hg (Jun 4, 5:50 am)
Low50 °F (Jun 7, 1:50 am)34% (Jun 17, 2:50 pm)29.56 "Hg (Jun 5, 10:20 pm)
Average65 °F66%29.92 "Hg
* Reported Jun 3 6:20 pm — Jun 18 6:20 pm, 51°09'N, 6°46'E. Weather by CustomWeather, © 2019

Note: Actual official high and low records may vary slightly from our data, if they occured in-between our weather recording intervals... More about our weather records

Advertising

51°09'N, 6°46'E Weather History for the Previous 24 Hours

Scroll right to see more
 ConditionsComfort  
Time TempWeatherWind HumidityBarometerVisibility
6:20 pm
Tue, Jun 18
82 °FPassing clouds.7 mph42%29.86 "HgN/A
5:50 pm84 °FSunny.3 mph40%29.86 "Hg10 mi
5:20 pm84 °FPassing clouds.6 mph40%29.89 "HgN/A
4:50 pm84 °FPassing clouds.6 mph37%29.89 "HgN/A
4:20 pm82 °FPassing clouds.7 mph42%29.89 "HgN/A
3:50 pm84 °FSunny.3 mph37%29.89 "Hg10 mi
3:20 pm84 °FSunny.5 mph37%29.92 "Hg10 mi
2:50 pm84 °FSunny.7 mph37%29.92 "Hg10 mi
2:20 pm84 °FPassing clouds.5 mph37%29.92 "HgN/A
1:50 pm82 °FPassing clouds.3 mph37%29.92 "HgN/A
1:20 pm82 °FPassing clouds.5 mph37%29.92 "HgN/A
12:50 pm82 °FSunny.3 mph37%29.95 "Hg10 mi
12:20 pm82 °FSunny.3 mph37%29.95 "Hg10 mi
11:50 am81 °FPassing clouds.5 mph37%29.95 "HgN/A
11:20 am81 °FPassing clouds.6 mph42%29.95 "HgN/A
10:50 am79 °FPassing clouds.3 mph45%29.98 "HgN/A
10:20 am79 °FPassing clouds.3 mph48%29.98 "HgN/A
9:50 am77 °FPassing clouds.6 mph51%29.98 "HgN/A
9:20 am75 °FPassing clouds.6 mph54%29.98 "HgN/A
8:50 am73 °FPassing clouds.5 mph57%29.98 "HgN/A
8:20 am72 °FPassing clouds.8 mph57%29.98 "HgN/A
7:50 am70 °FPassing clouds.6 mph60%29.98 "HgN/A
7:20 am68 °FPassing clouds.3 mph69%29.98 "HgN/A
6:50 am64 °FPassing clouds.3 mph73%29.98 "HgN/A
6:20 am59 °FPassing clouds.2 mph88%29.98 "HgN/A
5:50 am57 °FPassing clouds.3 mph88%29.98 "HgN/A
5:20 am55 °FPassing clouds.3 mph94%29.98 "HgN/A
4:50 am57 °FPassing clouds.2 mph88%29.98 "HgN/A
4:20 am55 °FPassing clouds.2 mph94%29.98 "HgN/A
3:50 am57 °FClear.3 mph88%30.01 "Hg10 mi
3:20 am57 °FClear.3 mph94%30.01 "Hg10 mi
2:50 am57 °FClear.2 mph94%30.01 "Hg10 mi
2:20 am59 °FClear.2 mph88%30.01 "Hg10 mi
1:50 am59 °FClear.3 mph88%30.01 "Hg10 mi
1:20 am61 °FClear.3 mph83%30.01 "Hg10 mi
12:50 am61 °FClear.3 mph83%30.01 "Hg10 mi
12:20 am61 °FClear.1 mph83%30.01 "Hg10 mi
11:50 pm
Mon, Jun 17
63 °FClear.2 mph77%30.01 "Hg10 mi
11:20 pm66 °FPassing clouds.5 mph68%30.01 "HgN/A
10:50 pm68 °FPassing clouds.6 mph60%30.01 "HgN/A
10:20 pm70 °FClear.6 mph60%30.01 "Hg10 mi
9:50 pm72 °FSunny.5 mph57%30.01 "Hg10 mi
9:20 pm73 °FSunny.5 mph50%30.01 "Hg10 mi
8:50 pm79 °FPassing clouds.6 mph39%30.01 "HgN/A
8:20 pm79 °FSunny.7 mph39%30.01 "Hg10 mi
7:50 pm79 °FPassing clouds.5 mph42%30.04 "HgN/A
7:20 pm77 °FPassing clouds.5 mph39%30.04 "HgN/A
Weather by CustomWeather, © 2019

See weather overview